Powrót do katalogu

FENGYUN 1C DEB

AktywnyPO
NORAD 29966·DEBRIS·🇨🇳 China

Wystrzelony May 10, 1999 z Taiyuan Satellite Launch Center

Loading…

Następne Przeloty (najbliższe 24 godziny)

TLE

ŚwieżeSource: Space-Track

Epoka: Sep 14, 2026, 22:14 UTC

1 29966U 99025KQ  26257.92665796  .00000456  00000-0  21007-3 0  9997
2 29966  99.4594 132.2878 0038425 280.7960  78.8893 14.26166317 19795

Śledź FENGYUN 1C DEB w czasie rzeczywistym z AllMySat

Download on the App Store